Home > Weather > Emden > Past weeks

Flag for Germany Past Weather in Emden, Lower Saxony, Germany — Yesterday and Last 2 Weeks

Now
60 °F

Sunny.


Feels Like: 60 °F
Forecast: 51 / 69 °F
Wind: 3 mph from Northeast

Location: Emden-Koenigspolder

Current Time: May 27, 2016 at 10:23:27 PM

Latest Report: May 27, 2016 at 9:00 PM


Visibility: 7 mi

Pressure: 30.03 "Hg

Humidity: 82%

Dew Point: 54 °F

Location of EmdenLocation

Past Weather in Emden — Graph

°F

Emden Temperature Yesterday

Maximum temperature yesterday: 60 °F (at 6:00 PM)
Minimum temperature yesterday: 51 °F (at 3:00 AM)
Average temperature yesterday: 55 °F

High & Low Weather Summary for the Past Weeks

 TemperatureHumidityPressure
High72 °F (May 22, 12:00 PM)100% (May 27, 3:00 AM)30.08 "Hg (May 27, 3:00 AM)
Low41 °F (May 16, 4:00 AM)43% (May 19, 3:00 PM)29.62 "Hg (May 12, 9:00 PM)
Average54 °F79%29.91 "Hg
* Reported May 12 9:00 PM — May 27 9:00 PM, Emden, Weather by CustomWeather, © 2016

Note: Actual official high and low records may vary slightly from our data, if they occured in-between our weather recording intervals... More about our weather records

Advertising

Emden Weather History for the Previous 24 Hours

Scroll right to see more
 ConditionsComfort  
Time TempWeatherWind HumidityBarometerVisibility
9:00 PM
Fri, May 27
60 °FSunny.3 mph82%30.03 "Hg7 mi
7:00 PM64 °FOvercast.5 mph74%30.03 "Hg5 mi
6:00 PM65 °FOvercast.6 mph73%30.03 "Hg3 mi
4:00 PM66 °FOvercast.3 mph64%30.04 "Hg8 mi
3:00 PM66 °FPartly sunny.2 mph62%30.05 "Hg11 mi
1:00 PM61 °FPartly sunny.2 mph72%30.06 "Hg14 mi
12:00 PM59 °FOvercast.3 mph80%30.08 "Hg10 mi
10:00 AM53 °FLow clouds.3 mph93%30.07 "Hg6 mi
9:00 AM52 °FLow clouds.2 mph97%30.08 "Hg3 mi
7:00 AM48 °FFog.N/A100%30.06 "Hg0 mi
6:00 AM48 °FLow clouds.3 mph100%30.06 "Hg0 mi
4:00 AM45 °FFog.2 mph100%30.05 "Hg0 mi
3:00 AM46 °FFog.1 mph100%30.06 "Hg0 mi
1:00 AM47 °FOvercast.No wind99%30.07 "Hg2 mi
12:00 AM48 °FPassing clouds.2 mph96%30.07 "Hg4 mi
10:00 PM
Thu, May 26
52 °FOvercast.2 mph90%30.06 "Hg5 mi
Weather by CustomWeather, © 2016

See weather overviewHow to use our weather pages